ARIANE 44L DEB, 28039

Orbit data source: Space-Track

ARIANE 44L DEB, 28039 is space debris in HEO originally from a launch on Tue, 15 Jan 1991 UTC launched from the French Guiana (FRGUI). Debris objects in space refer to the collection of defunct objects orbiting the Earth. Examples of debris include non-operational satellites, rocket bodies, and fragments generated from explosions, collisions, or faulty payload assembly.

Loading next visibility...
Identifier
28039, 1991-003M
Orbit
HEO
Country
Flag of FRFR
Related business
Manufacturer
Unknown
Mission
Spacecraft
Bus & Motor
Unknown
Mass
Unknown
Launch date (UTC)
1991-01-15 (35 years ago)
Launch vehicle
Unknown
Launch site
French Guiana (FRGUI)
Object type
Payload
Rocket body
Debris
Shape & HBR
Unknown shape, 1.1 m
Radar Cross Section
Medium (>0.1 m² and <1 m²)

Expand to show TLE details & history
Last TLE update: 10 months ago

TLE from 10 months ago
0 ARIANE 44L DEB
1 28039U 91003M   25241.93357237 -.00000156  00000-0  00000-0 0  9991
2 28039   7.0327 219.9019 6644950 123.8827 287.8912  2.58207847265181
Epoch: 2025-08-29T22:24Z
TLE epoch observation values (Epoch: 2025-08-29T22:24:20.652Z)
Latitude
-2.41181°
Longitude
-114.64655°
Altitude
20,742.248 km
Speed
3.411 km/s
True Right ascension
13h 19m 15s
True Declination
-2° 24' 29"
Sunlit
Object was in daylight at epoch
Visualization orbit readout
Latitude
Unknown
Longitude
Unknown
Altitude
Unknown
Speed
Unknown
Apparent Right ascension
Unknown
Apparent Declination
Unknown
Sunlit
N/A
Visualization observer readout
Local Sidereal Time
23:07:54
Azimuth
Unknown
Elevation
Unknown
Doppler factor
Unknown
Orbital elements
Apogee altitude
30,986.485 km
Perigee altitude
1,153.287 km
Semi-major axis
22,448.023 km
Eccentricity
0.6645
Inclination
7.0327°
RAAN
219.9019°
Arg. of periapsis
123.8827°
True anomaly
215.96826°
Mean anomaly
287.8912°
Eccentric anomaly
251.73637°
Mean motion
0.64532 °/min
Orbital period
557.86 mins
BSTAR
0
Loading maneuver chart data...
Computing Atmospheric mass density...
Loading historical data...
Loading historical data...
Loading historical data...
Loading historical data...
Loading historical data...
Loading historical data...
Loading historical data...

Documentation

Showing up to 5 results
|